This demonstration page uses our WeatherBlox Daily Observations layout. Learn more.

Left ArrowRight Arrow

41.55636, -103.73856

Hourly Observations for November 26, 2019

Temp ( °F °C ) Dew Point ( °F °C ) Humidity (%) Winds ( mph kmh ) Pressure ( in mb ) Visibility ( mi km ) Precip ( " mm )
12:58 am 00:58 Cloudy with Snow 28 -2.5 27 -3 96 96 E 5 7 29.79 1009 1.25 2.011675 0.01 0.254
1:58 am 01:58 Cloudy with Snow 27 -2.6 27 -3 97 97 ENE 7 11 29.81 1009 5 8.0467 0.02 0.508
2:58 am 02:58 Cloudy with Snow 27 -2.8 26 -3.2 97 97 ENE 10 17 29.8 1009 1 1.60934 0.02 0.508
3:58 am 03:58 Mostly Cloudy with Snow 27 -2.8 26 -3.1 98 98 ENE 12 19 29.76 1008 0.75 1.207005 0.02 0.508
4:58 am 04:58 Mostly Cloudy with Snow 27 -3 26 -3.4 97 97 E 15 24 29.74 1007 7 11.26538 0.02 0.508
5:58 am 05:58 Mostly Cloudy with Snow 26 -3.3 25 -3.8 96 96 E 15 24 29.73 1007 1 1.60934 0.01 0.254
6:58 am 06:58 Cloudy with Snow 26 -3.6 25 -4.1 96 96 E 15 24 29.73 1007 1 1.60934 0.01 0.254
7:58 am 07:58 Cloudy with Snow 25 -3.8 24 -4.3 96 96 E 17 28 29.72 1007 1 1.60934 0.01 0.254
8:58 am 08:58 Cloudy with Snow 25 -3.9 24 -4.3 97 97 E 9 15 29.73 1007 7 11.26538 0.01 0.254
9:58 am 09:58 Cloudy with Snow 25 -4 24 -4.5 96 96 E 8 13 29.75 1007 7 11.26538 0.02 0.508
10:58 am 10:58 Cloudy with Snow 25 -4.1 24 -4.6 96 96 ENE 10 17 29.76 1008 1.25 2.011675 0.02 0.508
11:58 am 11:58 Cloudy with Light Snow 24 -4.3 24 -4.7 97 97 ENE 15 24 29.76 1008 5 8.0467 0.01 0.254
12:58 pm 12:58 Cloudy with Light Snow 24 -4.5 23 -4.9 97 97 ENE 12 19 29.77 1008 1.5 2.41401 N/A
1:58 pm 13:58 Cloudy with Snow 24 -4.7 22 -5.3 96 96 ENE 13 20 29.79 1009 0.75 1.207005 0.01 0.254
2:58 pm 14:58 Cloudy with Light Snow 24 -4.7 22 -5.3 96 96 NE 9 15 29.8 1009 7 11.26538 N/A
3:58 pm 15:58 Cloudy with Light Snow 24 -4.7 22 -5.4 95 95 NE 9 15 29.81 1010 7 11.26538 0.01 0.254
4:58 pm 16:58 Cloudy with Light Snow 24 -4.5 22 -5.3 94 94 NNE 14 22 29.82 1010 1 1.60934 0.02 0.508
5:58 pm 17:58 Cloudy with Snow 24 -4.3 22 -5.3 93 93 N 15 24 29.82 1010 5 8.0467 0.02 0.508
6:58 pm 18:58 Mostly Cloudy with Light Snow 24 -4.3 22 -5.3 93 93 N 15 24 29.81 1010 5 8.0467 0.02 0.508
7:58 pm 19:58 Mostly Cloudy with Light Snow 25 -4.1 22 -5.4 91 91 N 15 24 29.81 1010 1 1.60934 0.02 0.508
8:58 pm 20:58 Mostly Cloudy with Light Snow 24 -4.2 22 -5.5 91 91 N 12 19 29.83 1010 3 4.82802 0.01 0.254
9:58 pm 21:58 Mostly Cloudy with Light Snow 23 -4.8 21 -6.2 90 90 N 15 24 29.86 1011 7 11.26538 N/A
10:58 pm 22:58 Mostly Cloudy with Light Snow 23 -5 20 -6.4 90 90 N 13 20 29.91 1013 5 8.0467 N/A
11:58 pm 23:58 Mostly Cloudy with Light Snow 21 -6 19 -7.2 91 91 NNW 12 19 29.95 1014 5 8.0467 N/A

Powered by AerisWeather